Regional Weather Roundup
Issued by NWS

Home | Current Version | Previous Version | Text Only | Print | Product List | Glossary Off
Versions: 1 2 3 4 5 6 7 8 9 10 11 12 13 14 15 16 17 18 19 20 21 22 23 24 25 26 27 28 29 30 31 32 33 34 35 36 37 38 39 40 41 42 43 44 45 46 47 48 49 50

000
ASUS43 KMPX 260101
RWRMN
WEATHER ROUNDUP FOR MINNESOTA
NATIONAL WEATHER SERVICE TWIN CITIES/CHANHASSEN MN
800 PM CDT MON SEP 25 2017


NOTE: "FAIR" INDICATES FEW OR NO CLOUDS BELOW 12,000 FEET WITH NO
SIGNIFICANT WEATHER AND/OR OBSTRUCTIONS TO VISIBILITY. N/A MEANS
CURRENT SKY AND/OR WEATHER CONDITIONS ARE NOT AVAILABLE.

MNZ060>063-068>070-260200-
   Twin Cities Metro

CITY           SKY/WX    TMP DP  RH WIND       PRES   REMARKS
TWIN CITIES    LGT RAIN  60  58  92 N9G21     29.97S
ST PAUL        CLOUDY    60  56  86 NE8       29.98S
CRYSTAL        LGT RAIN  58  53  84 N5        29.97S
BLAINE         LGT RAIN  61  57  88 N6        29.98S
LAKEVILLE      CLOUDY    57  57 100 NE6       29.98R
EDEN PRAIRIE   LGT RAIN  59  56  89 N6        29.97R
SOUTH ST PAUL  CLOUDY    60  56  87 NE6       29.97S
LAKE ELMO      CLOUDY    59  55  88 N6        30.00R
$$
MNZ001>005-007-008-013>017-022>024-027-028-260200-
   Northwest Minnesota

CITY           SKY/WX    TMP DP  RH WIND       PRES   REMARKS
BEMIDJI        CLOUDY    51  50  97 N5        30.07F
HALLOCK          N/A     54  48  82 N6        30.14R
ROSEAU           N/A     52  46  82 N9        30.13R
WARROAD        CLOUDY    52  48  87 N8        30.12F
CROOKSTON      CLOUDY    54  48  82 N8        30.11F
FOSSTON        CLOUDY    50  48  93 N7        30.09F
DETROIT LAKES  CLOUDY    52  48  87 N5        30.08R
MOORHEAD       CLOUDY    52  48  87 N8        30.09F
PARK RAPIDS    CLOUDY    54  49  83 N10       30.04F
MAHNOMEN       CLOUDY    51  47  86 N7        30.09S
$$
MNZ006-009>011-018-025>026-260200-
   North Central Minnesota

CITY           SKY/WX    TMP DP  RH WIND       PRES   REMARKS
BAUDETTE       CLOUDY    51  48  89 N7        30.11R
FLAG ISLAND    CLOUDY    52  48  87 NE9       30.11R
INTL FALLS     CLOUDY    53  48  83 NE6       30.09R
WASKISH        CLOUDY    52  48  87 N6        30.10S
BIG FORK       CLOUDY    54  48  82 N3        30.08R
LONGVILLE      CLOUDY    54  52  94 NE5       30.05S
GRAND RAPIDS   CLOUDY    54  50  86 N8        30.07R
CRANE LAKE     CLOUDY    52  52 100 N5        30.07F
ORR            CLOUDY    54  48  82 N3        30.04F
WALKER         CLOUDY    52  50  93 N6        30.05F
$$
MNZ012-019>021-037-260200-
   Northeast Minnesota

CITY           SKY/WX    TMP DP  RH WIND       PRES   REMARKS
DULUTH         CLOUDY    56  55  97 N8        30.02R
ELY            CLOUDY    54  52  94 CALM      30.04R
HIBBING        CLOUDY    53  51  93 N9        30.04S
EVELETH        CLOUDY    55  54  97 N6        30.04S
GRAND MARAIS     N/A     63  54  72 E8        30.01R
$$
MNZ029>031-032-039>041-046>048-054>057-064-260200-
   West Central Minnesota

CITY           SKY/WX    TMP DP  RH WIND       PRES   REMARKS
FERGUS FALLS   CLOUDY    54  50  87 N8        30.07R
WHEATON        CLOUDY    50  46  87 NW8G18    30.08S
ALEXANDRIA     CLOUDY    56  49  77 N12       30.04S
ELBOW LAKE     CLOUDY    53  50  90 N9        30.05R
WADENA         CLOUDY    54  48  82 N6        30.03F
GLENWOOD       CLOUDY    55  52  88 N7        30.03R
APPLETON       CLOUDY    55  50  82 N10G16    30.04R
BENSON         CLOUDY    55  50  82 N6        30.05R
ORTONVILLE     LGT RAIN  52  48  87 N12       30.05R
MADISON        DRIZZLE   55  55 100 N10       30.04S
WILLMAR        CLOUDY    57  55  94 NE7       30.03R
$$
MNZ033>034-036-042>043-049>051-058-059-260200-
   Central Minnesota

CITY           SKY/WX    TMP DP  RH WIND       PRES   REMARKS
ST CLOUD       LGT RAIN  56  54  93 N7        29.99F
SAUK CENTRE    CLOUDY    55  51  87 N7        30.03R
PAYNESVILLE    DRIZZLE   55  54  95 CALM      30.03R
AITKIN         CLOUDY    54  52  94 CALM      30.02F
PINE RIVER     CLOUDY    52  48  87 N6        30.07F FOG
BRAINERD       CLOUDY    56  52  86 NE7       30.04R
STAPLES        CLOUDY    54  50  87 N6        30.03F
LITTLE FALLS   DRIZZLE   54  48  82 CALM      30.02F
LITCHFIELD     DRIZZLE   57  55  94 N5        30.02R
BUFFALO        LGT RAIN  56  53  89 N3        30.00S
MAPLE LAKE     RAIN      57  55  94 N3        30.01R
HUTCHINSON     LGT RAIN  57  56  95 N5        30.02R
$$
MNZ037-044-045-052-053-260200-
   East Central Minnesota

CITY           SKY/WX    TMP DP  RH WIND       PRES   REMARKS
PRINCETON      RAIN      57  55  94 N5        30.00F
MORA           DRIZZLE   54  50  87 CALM      30.03S
RUSH CITY      CLOUDY    57  53  88 N5        30.01R
MOOSE LAKE     CLOUDY    55  52  88 N3        30.01R
HINCKLEY       CLOUDY    55  54  94 N5        30.02R
CLOQUET        CLOUDY    55  52  88 N5        30.02R
MCGREGOR       CLOUDY    55  52  88 N5        30.04R
$$
MNZ071>073-080-081-089-090-097-098-260200-
   Southwest Minnesota

CITY           SKY/WX    TMP DP  RH WIND       PRES   REMARKS
MONTEVIDEO     CLOUDY    55  52  88 N8        30.04R
GRANITE FALLS  CLOUDY    57  55  92 NW5       30.04R
CANBY          RAIN      53  51  93 N7        30.05R
MARSHALL       CLOUDY    53  51  93 N10       30.03S
REDWOOD FALLS  LGT RAIN  56  54  93 NW6       30.01R FOG
OLIVIA         RAIN      55  54  94 N3        30.02R
PIPESTONE      RAIN      54  52  94 NE8       30.01S
WORTHINGTON    LGT RAIN  54  53  97 N10       30.01F
JACKSON        CLOUDY    55  54  94 VRB6      30.00S
TRACY          DRIZZLE   55  55 100 N7        30.03S
SLAYTON        CLOUDY    53  46  75 N12       30.03S
$$
MNZ065>067-074>077-082>085-091>093-260200-
   South Central Minnesota

CITY           SKY/WX    TMP DP  RH WIND       PRES   REMARKS
MANKATO        LGT RAIN  58  57  97 N7        30.00
NEW ULM        CLOUDY    57  55  94 CALM      30.00S
ST JAMES       CLOUDY    57  55  94 NW3       30.00S
FARIBAULT      CLOUDY    61  57  88 CALM      29.99R
OWATONNA       DRIZZLE   61  59  94 CALM      29.98S
WASECA         RAIN      59  57  94 N3        30.00R
ALBERT LEA     LGT RAIN  64  63  94 NE7       29.96F
$$
MNZ078>079-086>088-094>096-260200-
   Southeast Minnesota

CITY           SKY/WX    TMP DP  RH WIND       PRES   REMARKS
ROCHESTER      HVY RAIN  63  62  97 SW17G25   30.03R FOG
RED WING       CLOUDY    63  57  82 CALM      29.96S
STANTON        LGT RAIN  61  58  87 NE3       29.96S
DODGE CENTER   RAIN      61  59  94 E5        29.99R
WINONA         CLOUDY    70  68  94 CALM      29.94S
AUSTIN         RAIN      63  61  94 NE10      29.96F
PRESTON        TSTM      67  65  92 NW8       29.99S
$$
ABBREVIATIONS USED IN REMARKS
   TC - TEMPERATURES IN CELSIUS
  WCI - WIND CHILL INDEX
   HX - HEAT INDEX
  VSB - VISIBILITY
$$




USA.gov is the U.S. government's official web portal to all federal, state and local government web resources and services.